TimeMST,TemperatureF,Dew PointF,Humidity,Sea Level PressureIn,VisibilityMPH,Wind Direction,Wind SpeedMPH,Gust SpeedMPH,PrecipitationIn,Events,Conditions,WindDirDegrees,DateUTC
12:15 AM,37.4,24.8,60,29.34,10.0,Calm,Calm,-,N/A,,Overcast,0,2013-11-16 07:15:00
12:55 AM,33.8,24.8,70,29.32,10.0,SSE,5.8,-,N/A,,Overcast,160,2013-11-16 07:55:00
1:15 AM,33.8,24.8,70,29.33,10.0,WSW,3.5,-,N/A,,Mostly Cloudy,240,2013-11-16 08:15:00
1:35 AM,33.8,24.8,70,29.32,10.0,SSW,4.6,-,N/A,,Scattered Clouds,210,2013-11-16 08:35:00
1:55 AM,32.0,23.0,69,29.32,10.0,SSW,5.8,-,N/A,,Overcast,200,2013-11-16 08:55:00
2:15 AM,32.0,24.8,75,29.31,10.0,South,4.6,-,N/A,,Overcast,180,2013-11-16 09:15:00
2:35 AM,33.8,24.8,70,29.31,10.0,South,4.6,-,N/A,,Overcast,190,2013-11-16 09:35:00
2:55 AM,33.8,24.8,70,29.31,10.0,South,4.6,-,N/A,,Overcast,180,2013-11-16 09:55:00
3:35 AM,33.8,26.6,75,29.30,10.0,SW,5.8,-,N/A,,Overcast,230,2013-11-16 10:35:00
4:15 AM,33.8,26.6,75,29.30,10.0,WSW,6.9,-,N/A,,Overcast,250,2013-11-16 11:15:00
4:35 AM,33.8,26.6,75,29.30,10.0,West,4.6,-,N/A,,Overcast,260,2013-11-16 11:35:00
4:55 AM,33.8,26.6,75,29.30,10.0,East,5.8,-,N/A,,Overcast,90,2013-11-16 11:55:00
5:15 AM,33.8,24.8,70,29.30,10.0,Calm,Calm,-,N/A,,Overcast,0,2013-11-16 12:15:00
5:35 AM,32.0,24.8,75,29.29,10.0,SSE,3.5,-,N/A,,Overcast,150,2013-11-16 12:35:00
5:55 AM,32.0,24.8,75,29.28,10.0,Calm,Calm,-,N/A,,Overcast,0,2013-11-16 12:55:00
6:15 AM,30.2,24.8,80,29.29,10.0,South,3.5,-,N/A,,Overcast,190,2013-11-16 13:15:00
6:35 AM,30.2,24.8,80,29.29,10.0,Calm,Calm,-,N/A,,Overcast,0,2013-11-16 13:35:00
6:55 AM,30.2,24.8,80,29.30,10.0,ESE,3.5,-,N/A,,Overcast,110,2013-11-16 13:55:00
7:15 AM,30.2,26.6,86,29.30,10.0,SSE,5.8,-,N/A,,Overcast,150,2013-11-16 14:15:00
7:35 AM,30.2,24.8,80,29.30,10.0,SSE,5.8,-,N/A,,Mostly Cloudy,160,2013-11-16 14:35:00
7:55 AM,32.0,24.8,75,29.29,10.0,SSE,6.9,-,N/A,,Scattered Clouds,160,2013-11-16 14:55:00
8:16 AM,32.0,24.8,75,29.30,10.0,South,8.1,-,N/A,,Clear,170,2013-11-16 15:16:00
8:35 AM,33.8,24.8,70,29.30,10.0,South,8.1,-,N/A,,Clear,170,2013-11-16 15:35:00
8:55 AM,33.8,24.8,70,29.30,10.0,SSE,5.8,-,N/A,,Clear,160,2013-11-16 15:55:00
9:15 AM,33.8,26.6,75,29.30,10.0,SSE,5.8,-,N/A,,Clear,160,2013-11-16 16:15:00
9:35 AM,33.8,26.6,75,29.29,10.0,SE,4.6,-,N/A,,Clear,140,2013-11-16 16:35:00
9:55 AM,33.8,26.6,75,29.29,10.0,SSE,3.5,-,N/A,,Clear,160,2013-11-16 16:55:00
10:15 AM,33.8,26.6,75,29.30,10.0,SSE,3.5,-,N/A,,Partly Cloudy,150,2013-11-16 17:15:00
10:35 AM,35.6,26.6,70,29.30,10.0,Calm,Calm,-,N/A,,Scattered Clouds,0,2013-11-16 17:35:00
10:55 AM,35.6,26.6,70,29.29,10.0,Calm,Calm,-,N/A,,Overcast,0,2013-11-16 17:55:00
11:15 AM,35.6,26.6,70,29.29,10.0,SSE,6.9,-,N/A,,Overcast,150,2013-11-16 18:15:00
11:35 AM,35.6,28.4,75,29.28,10.0,SSE,8.1,-,N/A,,Overcast,150,2013-11-16 18:35:00
11:55 AM,37.4,28.4,70,29.28,10.0,SSE,6.9,-,N/A,,Overcast,150,2013-11-16 18:55:00
12:35 PM,39.2,32.0,75,29.28,10.0,SSW,11.5,-,N/A,,Overcast,200,2013-11-16 19:35:00
12:55 PM,37.4,33.8,87,29.28,10.0,SSW,12.7,16.1,N/A,,Overcast,200,2013-11-16 19:55:00
1:15 PM,37.4,33.8,87,29.27,6.0,SW,6.9,-,N/A,,Overcast,220,2013-11-16 20:15:00
1:35 PM,37.4,33.8,87,29.27,8.0,SW,9.2,-,N/A,,Overcast,220,2013-11-16 20:35:00
1:55 PM,37.4,33.8,87,29.27,10.0,SW,6.9,-,N/A,,Overcast,230,2013-11-16 20:55:00
2:35 PM,37.4,33.8,87,29.28,10.0,SW,4.6,-,0.01,,Overcast,220,2013-11-16 21:35:00
2:55 PM,37.4,33.8,87,29.28,10.0,SW,3.5,-,0.01,,Overcast,220,2013-11-16 21:55:00
3:15 PM,37.4,33.8,87,29.29,10.0,SSW,4.6,-,N/A,,Overcast,210,2013-11-16 22:15:00
3:35 PM,35.6,33.8,93,29.29,9.0,SSW,3.5,-,0.01,,Overcast,210,2013-11-16 22:35:00
3:55 PM,35.6,33.8,93,29.29,8.0,SSW,5.8,-,0.01,,Overcast,200,2013-11-16 22:55:00
4:15 PM,35.6,33.8,93,29.29,5.0,South,4.6,-,0.01,,Overcast,170,2013-11-16 23:15:00
4:35 PM,35.6,33.8,93,29.30,8.0,South,5.8,-,0.01,,Mostly Cloudy,170,2013-11-16 23:35:00
4:55 PM,35.6,33.8,93,29.30,10.0,South,4.6,-,0.01,,Mostly Cloudy,170,2013-11-16 23:55:00
5:15 PM,35.6,33.8,93,29.30,0.5,SE,3.5,-,N/A,,Mostly Cloudy,140,2013-11-17 00:15:00
5:35 PM,33.8,32.0,93,29.31,0.2,SSE,4.6,-,N/A,,Mostly Cloudy,160,2013-11-17 00:35:00
5:55 PM,33.8,32.0,93,29.32,0.5,SSE,4.6,-,N/A,,Overcast,160,2013-11-17 00:55:00
6:15 PM,35.6,33.8,93,29.32,2.5,South,5.8,-,N/A,,Overcast,180,2013-11-17 01:15:00
6:35 PM,35.6,32.0,87,29.32,8.0,Calm,Calm,-,N/A,,Overcast,0,2013-11-17 01:35:00
6:55 PM,35.6,33.8,93,29.32,8.0,SW,3.5,-,0.01,,Overcast,220,2013-11-17 01:55:00
7:15 PM,35.6,33.8,93,29.33,10.0,South,3.5,-,N/A,,Overcast,190,2013-11-17 02:15:00
7:35 PM,33.8,33.8,100,29.34,9.0,NW,9.2,-,N/A,,Overcast,310,2013-11-17 02:35:00
7:55 PM,33.8,32.0,93,29.34,10.0,NW,6.9,-,N/A,,Overcast,310,2013-11-17 02:55:00
8:15 PM,33.8,32.0,93,29.34,10.0,Calm,Calm,-,N/A,,Overcast,0,2013-11-17 03:15:00
8:36 PM,33.8,30.2,87,29.35,10.0,Calm,Calm,-,N/A,,Mostly Cloudy,0,2013-11-17 03:36:00
8:55 PM,33.8,30.2,87,29.35,10.0,Calm,Calm,-,N/A,,Scattered Clouds,0,2013-11-17 03:55:00
9:15 PM,33.8,32.0,93,29.35,10.0,Calm,Calm,-,N/A,,Clear,0,2013-11-17 04:15:00
9:35 PM,32.0,30.2,93,29.35,10.0,SSE,3.5,-,N/A,,Clear,160,2013-11-17 04:35:00
9:55 PM,30.2,28.4,93,29.36,9.0,North,5.8,-,N/A,,Mostly Cloudy,350,2013-11-17 04:55:00
10:15 PM,28.4,26.6,93,29.37,0.5,North,3.5,-,N/A,,Overcast,350,2013-11-17 05:15:00
10:35 PM,26.6,26.6,100,29.38,0.5,NNW,3.5,-,N/A,,Unknown,340,2013-11-17 05:35:00
10:55 PM,28.4,24.8,86,29.38,1.2,North,4.6,-,N/A,,Mostly Cloudy,360,2013-11-17 05:55:00
11:15 PM,28.4,28.4,100,29.39,1.0,NNW,5.8,-,N/A,,Overcast,340,2013-11-17 06:15:00
11:35 PM,28.4,26.6,93,29.39,5.0,NW,4.6,-,N/A,,Mostly Cloudy,310,2013-11-17 06:35:00
11:55 PM,30.2,28.4,93,29.40,10.0,WNW,5.8,-,N/A,,Overcast,290,2013-11-17 06:55:00